CAPE
0 0 35 16 0 0 1 1 0 0 0 0 3 12 19 41 107 20 0 0 0 0 40 88 133 98 68 153 204 241 84 3 2 0 0 0 3 9 28 44 107 27 15 19 8 15 14 5 0
0 3 3 0 0 1 0 0 0 0 0 0 0 0 3 7 2 0 0 0 0 0 27 37 76 144 53 107 171 187 96 6 4 0 0 0 6 9 5 6 8 8 10 13 12 13 14 16 0
0 0 0 0 8 5 0 0 0 0 0 0 0 6 31 0 0 0 0 0 0 0 0 12 116 239 11 56 146 153 76 12 4 3 1 0 2 0 1 1 0 0 0 3 18 12 4 1 0
0 0 0 0 0 0 0 0 0 0 0 0 0 0 0 5 0 0 0 0 0 0 0 0 262 302 79 110 68 0 1 1 0 0 0 0 0 0 0 12 0 0 0 0 15 28 2 0 0
0 0 0 0 0 5 0 0 0 0 0 0 0 0 8 1 12 0 0 0 0 0 2 53 189 302 279 158 96 20 0 0 0 0 0 0 0 0 0 10 4 0 0 0 0 2 2 0 0
0 0 0 0 0 0 0 0 0 0 0 0 9 12 19 41 22 1 0 0 0 0 3 22 62 102 82 174 42 35 25 24 15 2 0 0 0 0 0 0 0 0 0 0 0 0 0 0 0
0 0 0 0 0 0 0 0 0 0 0 0 4 28 22 16 0 0 0 0 0 0 0 0 0 0 0 2 8 16 27 29 28 18 7 0 0 0 0 0 0 0 0 0 0 0 0 0 0
0 0 0 0 0 0 0 0 0 0 0 0 24 78 42 18 0 2 11 0 0 0 0 0 0 0 0 0 0 5 4 3 5 0 0 0 0 0 0 0 0 0 0 0 0 0 0 0 0
0 0 0 0 0 0 0 0 0 0 0 0 0 28 63 40 14 18 23 7 8 0 0 0 0 0 0 0 0 0 0 0 0 0 0 0 0 0 1 0 0 0 0 0 0 0 0 0 0
0 0 0 0 0 0 7 0 0 0 0 0 62 70 134 129 35 7 41 0 5 0 0 0 0 0 0 0 0 0 0 0 0 0 0 0 0 9 14 2 1 0 0 0 0 0 0 0 0
0 0 0 0 3 0 0 0 0 0 0 0 147 208 240 132 70 11 1 1 7 10 5 3 4 5 8 11 1 0 0 0 0 4 6 5 11 3 5 1 5 5 0 0 1 3 3 5 10
0 0 0 0 0 0 0 0 0 0 0 0 218 255 222 185 120 46 14 7 26 30 23 4 3 6 5 1 0 0 0 0 0 0 0 0 1 1 6 5 8 9 7 3 3 8 6 6 10
0 0 0 0 0 0 0 0 0 0 0 0 280 275 226 188 153 103 44 21 45 32 53 40 31 3 0 0 0 0 0 0 0 0 0 0 0 0 0 0 5 11 16 15 12 6 9 3 3
0 0 0 0 0 8 0 0 0 0 0 0 231 276 235 172 161 135 94 81 85 93 98 76 99 94 65 50 2 0 14 0 0 0 0 0 0 0 0 0 0 0 0 0 1 11 11 12 0
0 0 0 0 0 26 0 0 0 0 0 16 196 257 285 233 184 150 151 108 132 122 126 87 83 72 51 44 40 13 0 0 0 0 0 0 0 0 0 0 0 0 0 0 0 0 6 1 8
1 0 0 0 0 20 10 0 0 0 0 15 132 204 251 226 182 130 140 148 172 131 134 144 157 127 118 91 77 67 56 15 0 0 0 0 0 0 0 0 0 0 0 9 6 0 15 16 15
0 0 0 0 0 2 0 0 0 0 6 0 20 110 138 153 154 104 101 67 129 123 158 166 188 159 130 111 117 106 76 50 25 0 0 0 0 2 6 0 0 0 0 12 17 0 34 47 49
0 0 0 0 0 6 4 0 4 0 0 25 38 33 51 65 82 68 75 61 65 118 157 163 161 165 171 158 131 138 127 113 95 77 42 25 9 8 5 6 10 9 0 1 66 70 68 65 54
0 0 0 0 0 0 0 0 12 33 10 0 3 34 43 16 40 45 54 44 50 89 128 145 145 175 169 171 171 172 182 166 152 130 102 58 40 26 0 0 0 0 12 8 0 77 64 71 54
0 0 0 0 0 0 0 0 0 12 0 6 0 5 36 70 76 50 55 58 56 49 56 96 143 153 174 187 154 151 159 190 193 178 124 40 0 0 0 0 0 0 0 13 0 68 75 56 47
0 0 0 0 0 0 0 0 2 4 1 8 9 9 3 20 14 5 6 31 24 34 97 131 126 130 111 115 63 28 0 0 0 0 0 0 0 0 0 0 0 0 0 8 5 6 69 46 40
0 0 0 0 0 0 0 0 0 3 0 0 1 14 13 2 0 0 0 0 0 0 10 12 8 10 1 0 0 0 0 0 0 0 0 0 0 0 0 0 0 0 10 19 26 6 54 71 40
0 0 0 0 0 0 0 0 0 0 0 0 0 0 0 0 0 0 0 0 0 0 0 0 0 0 0 0 0 0 0 0 0 0 0 0 0 0 0 0 0 0 0 10 4 0 80 60 33
0 0 0 0 0 0 0 0 0 0 0 0 0 0 0 0 0 0 0 0 0 0 0 0 0 0 0 0 0 0 0 0 0 0 0 0 0 0 0 0 0 0 0 0 0 1 59 88 52
0 0 0 0 0 0 0 0 0 0 0 0 0 0 0 0 0 0 0 0 0 0 0 0 0 0 0 0 0 0 0 0 0 0 0 0 0 0 0 0 0 0 0 0 0 12 67 65 81
0 0 0 0 0 0 0 0 0 0 0 0 0 0 0 0 0 0 0 0 0 0 0 0 0 0 0 0 0 0 0 0 0 0 0 0 0 0 0 0 0 0 0 0 0 2 7 84 72
0 0 0 0 0 0 0 0 0 0 0 0 0 0 0 0 0 0 0 0 0 0 0 0 0 0 0 0 0 0 0 0 0 0 0 0 0 0 0 0 0 0 0 4 28 24 65 93 93
0 0 0 0 0 0 0 0 0 0 0 0 0 0 0 0 0 0 0 0 0 0 0 0 0 0 0 0 0 0 0 0 0 0 0 0 0 0 0 0 0 0 0 0 17 89 115 97 0
0 0 0 0 0 0 0 0 0 0 0 0 0 0 0 0 0 0 0 0 0 0 0 0 0 0 0 0 0 0 0 0 0 0 0 0 0 0 0 0 0 0 0 0 13 84 88 3 0
0 0 0 0 0 0 0 0 0 0 0 0 0 0 0 0 0 0 0 0 0 0 0 0 0 0 0 0 0 0 0 0 0 0 0 0 0 0 0 0 0 0 0 0 50 93 29 0 0
CIN
0 0 -182 -155 0 -1 -1 -2 0 0 0 0 -27 -39 -130 -135 -90 -130 -154 0 0 0 -80 -58 -36 -49 -79 -54 -24 -5 -64 0 0 0 0 0 0 0 -186 -150 -95 -23 0 0 0 0 0 0 0
0 -31 -83 0 0 -2 0 0 0 0 0 0 0 0 -87 -159 -219 0 -42 0 0 0 -113 -95 -62 -40 -122 -67 -35 -18 -57 0 0 0 0 0 0 0 0 0 0 0 0 0 0 0 0 0 0
0 0 0 0 -1 -1 0 0 0 0 0 0 0 -25 -84 -6 0 0 0 0 0 0 0 -127 -56 -33 -19 -109 -41 -31 -64 0 0 0 0 0 0 0 0 0 0 0 0 0 0 0 0 0 0
0 0 0 0 0 0 0 0 0 0 0 0 0 0 -3 -111 0 0 0 0 0 0 0 0 -25 -19 -76 -50 -98 0 0 0 0 0 0 0 0 0 0 0 0 0 0 0 0 0 0 0 0
0 0 0 0 -1 0 0 0 0 0 0 0 0 0 -115 -24 -104 0 0 0 0 0 -25 -83 -39 -6 -10 -28 -44 -2 0 0 0 0 0 0 0 0 0 0 0 0 0 0 0 0 0 0 0
0 0 0 0 0 0 0 0 0 0 0 0 -92 -126 -93 -73 -83 -57 0 0 0 0 -62 -80 -66 -43 -51 -16 -29 -4 -3 -1 -2 -2 0 0 0 0 0 0 0 0 0 0 0 0 0 0 0
0 0 0 0 0 0 0 0 0 0 0 0 -46 -152 -110 -98 0 0 0 0 0 0 0 0 0 0 0 -3 -17 -19 -15 -14 -9 -8 -6 0 0 0 0 0 0 0 0 0 0 0 0 0 0
0 0 0 0 0 0 0 0 0 0 0 0 -155 -171 -124 -127 0 -2 -2 0 0 0 0 0 0 0 0 0 0 -13 -20 -23 -16 -5 0 0 0 0 0 0 0 0 0 0 0 0 0 0 0
0 0 0 0 0 0 0 0 0 0 0 0 0 -187 -191 -155 -113 -49 -68 0 -24 0 0 0 0 0 0 0 0 0 0 0 0 0 0 0 0 0 0 0 0 0 0 0 0 0 0 0 0
0 0 -25 0 0 0 -7 0 0 0 0 0 -215 -208 -155 -125 -124 -108 -79 -4 -13 0 0 0 0 0 0 0 0 0 0 0 0 0 0 0 -14 -14 -8 -7 -2 0 0 0 0 0 0 0 -24
0 0 0 0 -55 0 0 0 0 0 0 0 -192 -155 -126 -126 -122 -78 -17 -12 -141 -122 -8 -28 -16 -16 -22 -14 -3 0 0 0 0 -35 -22 -25 -34 -3 -2 0 0 0 0 0 -4 -7 0 0 0
0 0 0 0 0 0 -3 0 0 0 0 0 -164 -130 -126 -135 -121 -131 -149 -132 -141 -139 -143 -34 -11 -12 -13 -4 0 0 0 0 0 0 0 0 -7 -15 -16 -24 -24 -13 0 0 0 -1 0 -2 -2
0 0 0 0 0 0 0 0 0 0 0 0 -135 -120 -140 -130 -105 -119 -147 -138 -131 -93 -99 -161 -121 -20 0 0 0 0 0 0 0 0 0 0 0 0 0 0 -24 -16 -11 -23 -10 -8 0 -3 -12
0 0 0 0 0 -21 0 0 0 0 0 0 -133 -123 -145 -144 -118 -122 -115 -119 -123 -97 -66 -66 -87 -88 -69 -73 -9 0 -38 0 0 0 0 0 0 0 0 0 0 0 0 0 -4 -14 -14 -22 -3
0 0 0 0 -2 -9 0 0 0 0 0 -184 -122 -123 -118 -119 -120 -129 -112 -114 -112 -123 -112 -106 -96 -85 -114 -81 -94 -37 0 0 0 0 0 0 0 0 0 0 0 0 0 0 0 0 -9 -6 -10
0 0 0 0 -1 -12 -7 0 0 0 0 -108 -112 -125 -117 -117 -117 -120 -116 -119 -106 -116 -111 -115 -99 -134 -117 -112 -86 -84 -80 -82 0 0 0 0 0 0 0 0 0 0 0 -2 -8 0 -10 -9 -20
0 0 0 0 0 -7 0 0 0 0 -111 0 -119 -117 -115 -97 -101 -112 -109 -119 -151 -129 -121 -119 -104 -106 -100 -99 -93 -79 -73 -65 -50 0 0 0 0 -16 -19 0 0 0 0 -2 -8 -11 -10 -5 -9
0 0 0 0 0 -11 -10 0 -13 0 0 -79 -81 -82 -99 -100 -99 -100 -111 -110 -118 -111 -126 -108 -103 -115 -110 -93 -77 -64 -55 -65 -57 -52 -44 -44 -48 -59 -15 -26 -60 -42 0 -1 -2 -1 -1 -6 -7
0 0 0 0 0 0 0 0 -3 -2 -4 -1 -57 -49 -50 -61 -87 -89 -94 -110 -108 -111 -111 -88 -90 -93 -86 -84 -67 -55 -46 -37 -28 -40 -37 -35 -43 -62 0 0 0 0 -59 -24 0 -3 -3 -3 -7
0 0 0 0 0 0 0 0 0 -2 0 -13 0 -45 -45 -63 -86 -92 -80 -89 -89 -91 -68 -63 -68 -54 -55 -37 -47 -45 -28 -21 -18 -16 -24 -47 0 0 0 0 0 0 0 -50 0 -4 -3 -2 -2
0 0 0 0 0 0 0 0 0 -1 -12 -22 -5 -1 -22 -50 -62 -38 -37 -63 -58 -52 -62 -60 -51 -29 -34 -24 -14 -14 0 0 0 0 0 0 0 0 0 0 0 0 0 -76 -14 -3 0 -5 0
0 0 0 0 0 0 0 0 0 -2 -1 0 -1 -1 -3 -1 -1 0 0 0 0 0 -115 -20 -19 -15 -3 0 0 0 0 0 0 0 0 0 0 0 0 0 0 0 -110 -63 -22 -2 -1 0 0
0 0 0 0 0 0 0 0 0 0 0 0 0 0 0 0 0 0 0 0 0 0 0 0 0 0 0 0 0 0 0 0 0 0 0 0 0 0 0 0 0 0 -7 -68 -15 0 0 -1 -6
0 0 0 0 0 0 0 0 0 0 0 0 0 0 0 0 0 0 0 0 0 0 0 0 0 0 0 0 0 0 0 0 0 0 0 0 0 0 0 0 0 0 0 0 0 0 -1 0 0
0 0 0 -1 0 0 0 0 0 0 0 0 0 0 0 0 0 0 0 0 0 0 0 0 0 0 0 0 0 0 0 0 0 0 0 0 0 0 0 0 0 0 0 0 0 -19 -4 -1 0
0 0 0 0 0 0 0 0 0 0 0 0 0 0 0 0 0 0 0 0 0 0 0 0 0 0 0 0 0 0 0 0 0 0 0 0 0 0 0 0 0 0 0 0 0 -1 -1 0 0
0 0 0 0 0 0 0 0 0 0 0 0 0 0 0 0 0 0 0 0 0 0 0 0 0 0 0 0 0 0 0 0 0 0 0 0 0 0 0 0 0 0 0 -17 -22 -21 -1 0 -4
0 0 0 0 0 0 0 0 0 0 0 0 0 0 0 0 0 0 0 0 0 0 0 0 0 0 0 0 0 0 0 0 0 0 0 0 0 0 0 0 0 0 0 0 -23 0 -1 -5 0
0 0 0 0 0 0 0 0 0 0 0 0 0 0 0 0 0 0 0 0 0 0 0 0 0 0 0 0 0 0 0 0 0 0 0 0 0 0 0 0 0 0 0 0 -16 -10 -13 -6 0
0 0 0 0 0 0 0 0 0 0 0 0 0 0 0 0 0 0 0 0 0 0 0 0 0 0 0 0 0 0 0 0 0 0 0 0 0 0 0 0 0 0 0 0 -37 -26 -42 0 0
Wind_Speed
nan nan nan nan nan nan nan nan nan nan nan nan nan nan nan nan 7 nan nan nan nan nan nan nan 8 nan nan 9 10 10 nan nan nan nan nan nan nan nan nan nan 15 nan nan nan nan nan nan nan nan
nan nan nan nan nan nan nan nan nan nan nan nan nan nan nan nan nan nan nan nan nan nan nan nan nan 10 nan 11 12 11 nan nan nan nan nan nan nan nan nan nan nan nan nan nan nan nan nan nan nan
nan nan nan nan nan nan nan nan nan nan nan nan nan nan nan nan nan nan nan nan nan nan nan nan 8 10 nan nan 14 12 nan nan nan nan nan nan nan nan nan nan nan nan nan nan nan nan nan nan nan
nan nan nan nan nan nan nan nan nan nan nan nan nan nan nan nan nan nan nan nan nan nan nan nan 9 10 nan 11 nan nan nan nan nan nan nan nan nan nan nan nan nan nan nan nan nan nan nan nan nan
nan nan nan nan nan nan nan nan nan nan nan nan nan nan nan nan nan nan nan nan nan nan nan nan 9 9 9 9 nan nan nan nan nan nan nan nan nan nan nan nan nan nan nan nan nan nan nan nan nan
nan nan nan nan nan nan nan nan nan nan nan nan nan nan nan nan nan nan nan nan nan nan nan nan nan 9 nan 8 nan nan nan nan nan nan nan nan nan nan nan nan nan nan nan nan nan nan nan nan nan
nan nan nan nan nan nan nan nan nan nan nan nan nan nan nan nan nan nan nan nan nan nan nan nan nan nan nan nan nan nan nan nan nan nan nan nan nan nan nan nan nan nan nan nan nan nan nan nan nan
nan nan nan nan nan nan nan nan nan nan nan nan nan nan nan nan nan nan nan nan nan nan nan nan nan nan nan nan nan nan nan nan nan nan nan nan nan nan nan nan nan nan nan nan nan nan nan nan nan
nan nan nan nan nan nan nan nan nan nan nan nan nan nan nan nan nan nan nan nan nan nan nan nan nan nan nan nan nan nan nan nan nan nan nan nan nan nan nan nan nan nan nan nan nan nan nan nan nan
nan nan nan nan nan nan nan nan nan nan nan nan nan nan 20 16 nan nan nan nan nan nan nan nan nan nan nan nan nan nan nan nan nan nan nan nan nan nan nan nan nan nan nan nan nan nan nan nan nan
nan nan nan nan nan nan nan nan nan nan nan nan 18 20 20 15 nan nan nan nan nan nan nan nan nan nan nan nan nan nan nan nan nan nan nan nan nan nan nan nan nan nan nan nan nan nan nan nan nan
nan nan nan nan nan nan nan nan nan nan nan nan 20 22 17 18 13 nan nan nan nan nan nan nan nan nan nan nan nan nan nan nan nan nan nan nan nan nan nan nan nan nan nan nan nan nan nan nan nan
nan nan nan nan nan nan nan nan nan nan nan nan 23 23 22 17 15 14 nan nan nan nan nan nan nan nan nan nan nan nan nan nan nan nan nan nan nan nan nan nan nan nan nan nan nan nan nan nan nan
nan nan nan nan nan nan nan nan nan nan nan nan 28 22 22 20 17 16 nan nan nan nan nan nan nan nan nan nan nan nan nan nan nan nan nan nan nan nan nan nan nan nan nan nan nan nan nan nan nan
nan nan nan nan nan nan nan nan nan nan nan nan 29 25 22 19 17 19 19 18 19 18 18 nan nan nan nan nan nan nan nan nan nan nan nan nan nan nan nan nan nan nan nan nan nan nan nan nan nan
nan nan nan nan nan nan nan nan nan nan nan nan 28 27 23 19 20 22 21 23 22 21 21 22 18 21 17 nan nan nan nan nan nan nan nan nan nan nan nan nan nan nan nan nan nan nan nan nan nan
nan nan nan nan nan nan nan nan nan nan nan nan nan 29 27 24 20 23 23 nan 25 23 24 23 22 23 21 21 21 21 nan nan nan nan nan nan nan nan nan nan nan nan nan nan nan nan nan nan nan
nan nan nan nan nan nan nan nan nan nan nan nan nan nan nan nan nan nan nan nan nan 22 24 23 23 24 25 25 25 24 23 23 nan nan nan nan nan nan nan nan nan nan nan nan nan nan nan nan nan
nan nan nan nan nan nan nan nan nan nan nan nan nan nan nan nan nan nan nan nan nan nan 26 24 24 22 28 29 31 31 29 29 29 31 31 nan nan nan nan nan nan nan nan nan nan nan nan nan nan
nan nan nan nan nan nan nan nan nan nan nan nan nan nan nan nan nan nan nan nan nan nan nan nan 26 27 29 31 38 39 39 33 34 35 35 nan nan nan nan nan nan nan nan nan nan nan nan nan nan
nan nan nan nan nan nan nan nan nan nan nan nan nan nan nan nan nan nan nan nan nan nan nan 28 29 34 38 36 nan nan nan nan nan nan nan nan nan nan nan nan nan nan nan nan nan nan nan nan nan
nan nan nan nan nan nan nan nan nan nan nan nan nan nan nan nan nan nan nan nan nan nan nan nan nan nan nan nan nan nan nan nan nan nan nan nan nan nan nan nan nan nan nan nan nan nan nan nan nan
nan nan nan nan nan nan nan nan nan nan nan nan nan nan nan nan nan nan nan nan nan nan nan nan nan nan nan nan nan nan nan nan nan nan nan nan nan nan nan nan nan nan nan nan nan nan nan nan nan
nan nan nan nan nan nan nan nan nan nan nan nan nan nan nan nan nan nan nan nan nan nan nan nan nan nan nan nan nan nan nan nan nan nan nan nan nan nan nan nan nan nan nan nan nan nan nan nan nan
nan nan nan nan nan nan nan nan nan nan nan nan nan nan nan nan nan nan nan nan nan nan nan nan nan nan nan nan nan nan nan nan nan nan nan nan nan nan nan nan nan nan nan nan nan nan nan nan nan
nan nan nan nan nan nan nan nan nan nan nan nan nan nan nan nan nan nan nan nan nan nan nan nan nan nan nan nan nan nan nan nan nan nan nan nan nan nan nan nan nan nan nan nan nan nan nan nan nan
nan nan nan nan nan nan nan nan nan nan nan nan nan nan nan nan nan nan nan nan nan nan nan nan nan nan nan nan nan nan nan nan nan nan nan nan nan nan nan nan nan nan nan nan nan nan nan nan nan
nan nan nan nan nan nan nan nan nan nan nan nan nan nan nan nan nan nan nan nan nan nan nan nan nan nan nan nan nan nan nan nan nan nan nan nan nan nan nan nan nan nan nan nan nan nan 65 nan nan
nan nan nan nan nan nan nan nan nan nan nan nan nan nan nan nan nan nan nan nan nan nan nan nan nan nan nan nan nan nan nan nan nan nan nan nan nan nan nan nan nan nan nan nan nan nan nan nan nan
nan nan nan nan nan nan nan nan nan nan nan nan nan nan nan nan nan nan nan nan nan nan nan nan nan nan nan nan nan nan nan nan nan nan nan nan nan nan nan nan nan nan nan nan nan nan nan nan nan
Wind_Direction
nan nan nan nan nan nan nan nan nan nan nan nan nan nan nan nan 148 nan nan nan nan nan nan nan 306 nan nan 290 301 304 nan nan nan nan nan nan nan nan nan nan 247 nan nan nan nan nan nan nan nan
nan nan nan nan nan nan nan nan nan nan nan nan nan nan nan nan nan nan nan nan nan nan nan nan nan 301 nan 290 300 288 nan nan nan nan nan nan nan nan nan nan nan nan nan nan nan nan nan nan nan
nan nan nan nan nan nan nan nan nan nan nan nan nan nan nan nan nan nan nan nan nan nan nan nan 319 315 nan nan 288 288 nan nan nan nan nan nan nan nan nan nan nan nan nan nan nan nan nan nan nan
nan nan nan nan nan nan nan nan nan nan nan nan nan nan nan nan nan nan nan nan nan nan nan nan 329 330 nan 320 nan nan nan nan nan nan nan nan nan nan nan nan nan nan nan nan nan nan nan nan nan
nan nan nan nan nan nan nan nan nan nan nan nan nan nan nan nan nan nan nan nan nan nan nan nan 315 326 334 344 nan nan nan nan nan nan nan nan nan nan nan nan nan nan nan nan nan nan nan nan nan
nan nan nan nan nan nan nan nan nan nan nan nan nan nan nan nan nan nan nan nan nan nan nan nan nan 308 nan 346 nan nan nan nan nan nan nan nan nan nan nan nan nan nan nan nan nan nan nan nan nan
nan nan nan nan nan nan nan nan nan nan nan nan nan nan nan nan nan nan nan nan nan nan nan nan nan nan nan nan nan nan nan nan nan nan nan nan nan nan nan nan nan nan nan nan nan nan nan nan nan
nan nan nan nan nan nan nan nan nan nan nan nan nan nan nan nan nan nan nan nan nan nan nan nan nan nan nan nan nan nan nan nan nan nan nan nan nan nan nan nan nan nan nan nan nan nan nan nan nan
nan nan nan nan nan nan nan nan nan nan nan nan nan nan nan nan nan nan nan nan nan nan nan nan nan nan nan nan nan nan nan nan nan nan nan nan nan nan nan nan nan nan nan nan nan nan nan nan nan
nan nan nan nan nan nan nan nan nan nan nan nan nan nan 288 310 nan nan nan nan nan nan nan nan nan nan nan nan nan nan nan nan nan nan nan nan nan nan nan nan nan nan nan nan nan nan nan nan nan
nan nan nan nan nan nan nan nan nan nan nan nan 272 271 288 294 nan nan nan nan nan nan nan nan nan nan nan nan nan nan nan nan nan nan nan nan nan nan nan nan nan nan nan nan nan nan nan nan nan
nan nan nan nan nan nan nan nan nan nan nan nan 280 285 267 289 295 nan nan nan nan nan nan nan nan nan nan nan nan nan nan nan nan nan nan nan nan nan nan nan nan nan nan nan nan nan nan nan nan
nan nan nan nan nan nan nan nan nan nan nan nan 268 275 279 275 286 288 nan nan nan nan nan nan nan nan nan nan nan nan nan nan nan nan nan nan nan nan nan nan nan nan nan nan nan nan nan nan nan
nan nan nan nan nan nan nan nan nan nan nan nan 268 269 276 285 287 287 nan nan nan nan nan nan nan nan nan nan nan nan nan nan nan nan nan nan nan nan nan nan nan nan nan nan nan nan nan nan nan
nan nan nan nan nan nan nan nan nan nan nan nan 266 272 272 280 283 288 295 291 299 283 288 nan nan nan nan nan nan nan nan nan nan nan nan nan nan nan nan nan nan nan nan nan nan nan nan nan nan
nan nan nan nan nan nan nan nan nan nan nan nan 262 265 270 269 276 281 287 289 295 291 292 289 289 295 298 nan nan nan nan nan nan nan nan nan nan nan nan nan nan nan nan nan nan nan nan nan nan
nan nan nan nan nan nan nan nan nan nan nan nan nan 262 261 256 264 276 278 nan 291 296 290 289 290 292 297 297 298 303 nan nan nan nan nan nan nan nan nan nan nan nan nan nan nan nan nan nan nan
nan nan nan nan nan nan nan nan nan nan nan nan nan nan nan nan nan nan nan nan nan 286 287 286 288 296 297 293 292 290 290 290 nan nan nan nan nan nan nan nan nan nan nan nan nan nan nan nan nan
nan nan nan nan nan nan nan nan nan nan nan nan nan nan nan nan nan nan nan nan nan nan 279 283 287 288 286 286 286 285 286 283 285 287 293 nan nan nan nan nan nan nan nan nan nan nan nan nan nan
nan nan nan nan nan nan nan nan nan nan nan nan nan nan nan nan nan nan nan nan nan nan nan nan 285 287 284 281 286 289 289 289 287 287 291 nan nan nan nan nan nan nan nan nan nan nan nan nan nan
nan nan nan nan nan nan nan nan nan nan nan nan nan nan nan nan nan nan nan nan nan nan nan 279 281 289 288 290 nan nan nan nan nan nan nan nan nan nan nan nan nan nan nan nan nan nan nan nan nan
nan nan nan nan nan nan nan nan nan nan nan nan nan nan nan nan nan nan nan nan nan nan nan nan nan nan nan nan nan nan nan nan nan nan nan nan nan nan nan nan nan nan nan nan nan nan nan nan nan
nan nan nan nan nan nan nan nan nan nan nan nan nan nan nan nan nan nan nan nan nan nan nan nan nan nan nan nan nan nan nan nan nan nan nan nan nan nan nan nan nan nan nan nan nan nan nan nan nan
nan nan nan nan nan nan nan nan nan nan nan nan nan nan nan nan nan nan nan nan nan nan nan nan nan nan nan nan nan nan nan nan nan nan nan nan nan nan nan nan nan nan nan nan nan nan nan nan nan
nan nan nan nan nan nan nan nan nan nan nan nan nan nan nan nan nan nan nan nan nan nan nan nan nan nan nan nan nan nan nan nan nan nan nan nan nan nan nan nan nan nan nan nan nan nan nan nan nan
nan nan nan nan nan nan nan nan nan nan nan nan nan nan nan nan nan nan nan nan nan nan nan nan nan nan nan nan nan nan nan nan nan nan nan nan nan nan nan nan nan nan nan nan nan nan nan nan nan
nan nan nan nan nan nan nan nan nan nan nan nan nan nan nan nan nan nan nan nan nan nan nan nan nan nan nan nan nan nan nan nan nan nan nan nan nan nan nan nan nan nan nan nan nan nan nan nan nan
nan nan nan nan nan nan nan nan nan nan nan nan nan nan nan nan nan nan nan nan nan nan nan nan nan nan nan nan nan nan nan nan nan nan nan nan nan nan nan nan nan nan nan nan nan nan 285 nan nan
nan nan nan nan nan nan nan nan nan nan nan nan nan nan nan nan nan nan nan nan nan nan nan nan nan nan nan nan nan nan nan nan nan nan nan nan nan nan nan nan nan nan nan nan nan nan nan nan nan
nan nan nan nan nan nan nan nan nan nan nan nan nan nan nan nan nan nan nan nan nan nan nan nan nan nan nan nan nan nan nan nan nan nan nan nan nan nan nan nan nan nan nan nan nan nan nan nan nan